Date,TemperatureHighF,TemperatureAvgF,TemperatureLowF,DewpointHighF,DewpointAvgF,DewpointLowF,HumidityHigh,HumidityAvg,HumidityLow,PressureMaxIn,PressureMinIn,WindSpeedMaxMPH,WindSpeedAvgMPH,GustSpeedMaxMPH,PrecipitationSumIn
2014-1-1,54,35,25,32,25,16,87,67,34,30.43,30.06,7,1,7,0.00
2014-1-2,38,35,29,35,32,27,94,87,81,30.17,29.49,4,0,4,0.00
2014-1-3,30,20,11,27,6,-5,93,56,25,30.49,29.64,14,2,14,0.00
2014-1-4,41,22,8,21,9,0,76,59,31,30.44,30.23,8,1,8,0.00
2014-1-5,41,33,20,41,30,14,99,87,75,30.29,29.79,4,0,4,0.14
2014-1-6,46,35,10,45,24,-22,99,67,21,30.19,29.41,15,4,15,0.04
2014-1-7,22,11,5,-8,-17,-23,38,26,20,30.42,30.07,13,4,13,0.00
2014-1-8,33,21,8,12,-2,-11,60,38,23,30.42,30.12,6,1,6,0.00
2014-1-9,46,32,25,23,17,11,67,55,40,30.51,30.21,4,0,4,0.00
2014-1-10,38,36,32,37,31,21,98,85,63,30.43,29.95,2,0,2,0.31
2014-1-11,53,45,37,52,44,36,99,98,88,30.05,29.17,9,1,9,0.28
2014-1-12,54,43,31,45,32,26,87,67,44,30.20,29.63,11,2,11,0.01
2014-1-13,63,44,28,41,34,24,92,70,42,30.20,29.68,11,1,11,0.00
2014-1-14,52,46,35,48,44,33,99,92,60,29.99,29.54,7,1,7,0.32
2014-1-15,58,42,33,48,38,30,99,86,65,30.00,29.73,6,1,6,0.00
2014-1-16,46,35,27,31,22,14,78,59,30,30.03,29.69,7,2,7,0.00
2014-1-17,53,38,26,34,28,20,85,69,44,29.91,29.63,3,1,3,0.00
2014-1-18,38,30,22,29,14,2,81,52,25,30.08,29.66,11,3,11,0.00
2014-1-19,50,35,23,25,18,6,59,49,32,30.04,29.52,10,2,10,0.00
2014-1-20,58,43,33,30,26,22,70,52,27,29.89,29.46,13,2,13,0.00
2014-1-21,38,27,15,28,20,6,85,75,58,29.88,29.54,10,2,10,0.00
2014-1-22,25,12,6,6,-7,-12,67,42,24,30.03,29.66,14,3,14,0.06
2014-1-23,31,17,5,14,0,-7,65,47,34,30.34,29.82,8,2,10,0.00
2014-1-24,32,18,9,1,-6,-10,45,34,21,30.29,29.83,8,2,8,0.00
2014-1-25,32,26,20,19,5,-7,63,41,29,29.94,29.31,11,3,11,0.00
2014-1-26,36,26,16,16,7,-3,60,44,24,29.74,29.44,11,2,11,0.00
2014-1-27,48,34,20,31,14,-8,63,45,27,30.16,29.41,14,4,14,0.00
2014-1-28,21,16,11,0,-13,-16,54,26,21,30.16,29.91,12,3,12,0.00
2014-1-29,30,17,11,4,-4,-14,63,40,21,30.25,29.79,9,2,9,0.01
2014-1-30,40,23,6,9,2,-6,64,41,21,30.26,29.78,4,1,4,0.00
2014-1-31,26,25,24,10,10,7,52,51,48,30.00,29.87,2,1,2,0.00
2014-2-1,25,25,25,10,10,10,51,51,51,29.88,29.88,1,1,2,0.00
2014-2-2,48,27,25,40,12,10,81,53,51,30.01,29.87,7,1,7,0.00
2014-2-3,45,37,30,40,34,26,95,90,81,30.14,29.55,8,1,8,0.71
2014-2-4,40,31,24,27,23,20,88,71,52,30.11,29.82,5,1,5,0.00
2014-2-5,40,35,32,36,31,21,94,85,62,29.88,29.16,15,2,15,0.39
2014-2-6,40,31,26,22,17,11,71,56,35,30.03,29.68,13,2,13,0.00
2014-2-7,50,33,23,26,19,16,80,59,32,30.11,29.72,7,1,7,0.00
2014-2-8,35,30,25,20,15,9,68,54,36,30.14,29.82,3,0,3,0.00
2014-2-9,33,29,22,26,19,14,85,67,47,30.11,29.77,3,0,4,0.00
2014-2-10,32,27,21,25,11,6,85,52,39,30.03,29.67,12,2,12,0.01
2014-2-11,36,23,15,9,5,2,62,46,26,30.20,29.76,10,1,10,0.00
2014-2-12,31,23,13,18,9,0,75,55,36,30.17,29.72,5,1,5,0.00
2014-2-13,37,33,25,34,29,18,91,87,75,29.82,28.74,8,2,8,0.00
2014-2-14,57,40,32,32,28,24,89,64,35,29.46,29.07,8,1,8,0.01
2014-2-15,37,35,28,32,26,12,84,70,51,29.78,29.18,11,2,13,0.06
2014-2-16,43,30,24,20,14,7,67,50,35,30.37,28.12,39,2,39,0.00
2014-2-17,44,30,21,17,10,1,68,45,22,30.18,29.81,8,1,8,0.00
2014-2-18,59,39,28,34,27,16,81,63,33,29.97,29.43,7,1,7,0.05
2014-2-19,64,44,31,48,34,25,90,69,44,29.92,29.15,14,2,14,0.15
2014-2-20,59,42,29,36,29,24,85,63,30,29.90,29.49,4,1,4,0.00
2014-2-21,62,44,33,60,40,31,95,84,68,29.69,29.18,14,1,14,0.14
2014-2-22,67,45,30,36,28,22,93,60,18,30.50,29.57,12,1,12,0.01
2014-2-23,64,50,43,39,33,29,84,53,29,29.82,29.39,8,2,8,0.00
2014-2-24,49,38,29,38,17,4,90,46,21,29.91,29.56,15,3,15,0.01
2014-2-25,38,31,25,31,21,12,85,67,52,29.89,27.21,8,1,8,0.04
2014-2-26,40,29,20,28,15,2,87,57,31,29.81,29.31,11,2,11,0.05
2014-2-27,44,27,16,19,7,-11,72,44,21,29.90,29.10,16,4,16,0.00
2014-2-28,35,21,11,3,-8,-16,45,27,19,30.09,29.75,7,2,8,0.00
2014-3-1,47,31,16,22,12,1,69,46,22,30.03,29.70,8,1,8,0.00
2014-3-2,50,39,33,39,30,22,97,73,46,30.00,29.62,5,0,5,0.22
2014-3-3,34,21,8,33,14,-2,94,73,46,30.07,29.64,5,0,5,0.09
2014-3-4,36,21,5,13,5,-3,71,52,23,30.06,29.56,4,0,4,0.14
2014-3-5,50,30,17,18,13,7,74,51,21,30.60,29.53,8,1,8,0.01
2014-3-6,40,28,24,21,14,8,67,53,44,30.15,29.81,6,1,10,0.00
2014-3-7,46,36,30,33,27,21,75,69,57,30.09,29.38,7,1,7,0.00
2014-3-8,64,45,27,39,32,22,86,63,36,30.22,29.35,11,1,11,0.00
2014-3-9,51,44,37,38,26,12,75,51,25,29.97,29.60,14,3,14,0.00
2014-3-10,64,48,37,36,28,21,60,48,27,29.96,29.19,10,1,10,0.00
2014-3-11,67,54,43,43,39,32,74,56,37,29.51,29.17,8,1,8,0.00
2014-3-12,65,51,33,58,42,19,95,74,52,29.51,28.65,26,4,26,0.12
2014-3-13,35,29,21,20,4,-8,58,36,21,30.13,29.34,22,7,22,0.00
2014-3-14,59,40,24,30,17,2,58,41,20,30.14,29.33,15,2,15,0.00
2014-3-15,69,55,44,37,24,18,53,32,15,29.49,29.28,12,3,15,0.00
2014-3-16,48,40,30,29,25,16,88,58,33,30.01,29.49,8,1,8,0.00
2014-3-17,35,30,25,27,24,20,90,78,68,29.92,29.55,6,0,6,0.02
2014-3-18,45,37,30,31,26,21,72,63,52,30.06,29.64,4,1,4,0.07
2014-3-19,43,40,36,42,36,28,99,88,71,30.06,29.51,5,0,5,0.25
2014-3-20,61,48,39,45,33,18,99,63,24,29.85,29.44,17,4,17,0.00
2014-3-21,54,44,33,44,34,25,92,70,49,29.92,29.63,11,2,11,0.05
2014-3-22,72,51,37,42,36,29,99,64,23,29.97,29.48,13,1,13,0.00
2014-3-23,48,43,34,34,26,6,68,52,27,30.18,29.73,11,3,11,0.00
2014-3-24,45,34,24,16,8,2,55,34,21,30.90,29.67,12,3,12,0.00
2014-3-25,36,32,26,32,26,13,96,79,52,29.90,29.37,3,0,3,0.09
2014-3-26,39,32,28,30,14,1,96,53,23,30.13,29.53,19,3,19,0.02
2014-3-27,52,36,21,30,17,6,68,47,22,30.11,26.98,10,1,10,0.00
2014-3-28,66,53,39,56,46,30,94,76,66,29.98,29.58,14,2,14,0.07
2014-3-29,60,54,52,57,53,51,99,96,81,29.93,29.46,4,1,4,0.43
2014-3-30,57,43,35,57,43,34,99,98,93,29.76,29.32,13,4,13,0.90
2014-3-31,67,51,40,40,36,30,99,60,29,30.40,29.62,12,4,12,0.00
2014-4-1,67,51,36,42,36,30,84,58,34,29.91,29.57,98,2,98,0.00
2014-4-2,68,54,41,51,45,40,96,73,55,29.97,29.68,4,0,4,0.00
2014-4-3,62,53,49,50,48,42,99,85,50,29.97,29.57,3,0,3,0.02
2014-4-4,55,51,48,50,46,12,98,81,68,29.76,29.37,4,1,4,0.04
2014-4-5,61,51,44,50,38,29,99,65,34,30.15,29.57,19,4,19,0.12
2014-4-6,66,48,32,31,26,19,74,45,18,30.15,29.78,6,1,6,0.00
2014-4-7,53,47,41,52,42,25,99,86,43,30.12,29.45,7,0,7,0.00
2014-4-8,68,56,45,56,47,39,99,76,43,29.57,29.17,14,2,14,0.00
2014-4-9,70,53,36,43,35,23,99,58,22,29.78,29.36,11,2,11,0.00
2014-4-10,76,57,36,41,34,29,86,48,21,29.92,29.70,10,2,10,0.00
2014-4-11,86,68,57,57,44,38,87,46,22,29.88,29.62,8,2,8,0.00
2014-4-12,82,64,51,57,45,28,99,59,15,30.65,29.87,5,1,5,0.00
2014-4-13,86,69,54,60,55,51,97,66,35,29.95,29.77,12,2,12,0.00
2014-4-14,82,71,65,62,58,54,79,64,42,29.84,29.69,14,3,14,0.00
2014-4-15,68,56,36,66,54,29,99,94,74,29.85,29.44,11,2,11,0.00
2014-4-16,55,41,32,29,21,14,71,46,23,30.25,29.82,13,3,13,0.00
2014-4-17,59,44,30,40,33,26,85,66,44,30.35,30.18,5,1,5,0.00
2014-4-18,53,46,37,40,37,33,86,72,57,30.23,29.90,3,1,3,0.00
2014-4-19,73,55,40,45,38,26,95,59,22,30.24,29.86,7,1,7,0.00
2014-4-20,64,54,46,43,38,33,73,57,42,30.29,29.98,6,1,6,0.00
2014-4-21,76,54,34,43,36,21,93,57,14,30.19,29.65,4,0,4,0.00
2014-4-22,77,60,48,61,52,42,99,76,39,29.66,29.33,10,0,10,0.00
2014-4-23,63,53,46,56,40,34,97,61,43,29.76,29.44,12,4,12,0.00
2014-4-24,70,53,40,38,29,20,69,44,16,29.92,29.74,9,1,9,0.00
2014-4-25,67,53,41,52,41,31,98,69,33,29.79,29.47,7,1,7,0.00
2014-4-26,80,62,49,53,47,38,99,62,30,29.75,29.54,15,2,15,0.00
2014-4-27,73,57,43,45,39,34,74,51,30,29.92,29.75,5,1,5,0.00
2014-4-28,63,54,48,51,44,38,96,70,48,29.93,29.75,3,0,3,0.00
2014-4-29,52,50,49,51,49,47,99,96,88,30.07,29.87,9,2,9,0.00
2014-4-30,64,55,49,63,54,48,99,98,97,30.05,29.68,5,2,5,2.13
2014-5-1,82,67,58,65,59,47,99,79,43,29.68,29.53,5,1,5,0.34
2014-5-2,71,60,50,50,45,40,97,59,36,29.71,29.61,8,1,8,0.00
2014-5-3,76,62,52,54,48,41,93,65,32,30.32,29.50,7,0,7,0.00
2014-5-4,80,61,46,51,46,40,99,64,31,29.88,29.64,6,1,6,0.00
2014-5-5,70,57,45,48,40,34,83,53,33,29.90,29.71,4,1,4,0.00
2014-5-6,80,62,51,53,49,42,97,66,29,29.93,29.74,4,1,4,0.00
2014-5-7,63,56,49,57,49,40,93,77,50,30.74,29.93,2,0,2,0.17
2014-5-8,92,70,55,68,61,54,99,78,37,30.02,29.85,4,0,4,0.00
2014-5-9,73,66,61,65,62,59,96,89,73,30.05,29.85,2,0,2,0.00
2014-5-10,80,70,63,69,65,61,99,85,54,29.96,29.81,8,1,8,0.28
2014-5-11,87,70,58,65,57,49,99,71,28,30.12,29.90,4,0,4,0.00
2014-5-12,90,72,57,70,64,56,99,78,42,30.07,29.91,6,0,6,0.19
2014-5-13,88,75,65,74,68,60,99,81,54,30.09,29.93,2,0,2,0.00
2014-5-14,65,64,64,60,59,59,84,84,83,30.10,30.09,2,1,2,0.00
2014-5-15,64,64,64,59,59,59,84,84,84,30.10,30.10,1,1,2,0.00
2014-5-16,77,65,58,64,58,49,95,80,54,30.10,29.86,3,0,3,3.28
2014-5-17,74,60,48,51,47,41,94,66,34,30.17,29.96,4,0,4,0.00
2014-5-18,75,59,46,49,44,38,92,62,31,30.18,30.06,4,0,4,0.00
2014-5-19,79,60,42,49,44,38,99,63,25,30.17,27.79,5,0,5,0.00
2014-5-20,85,66,50,55,48,40,91,58,25,30.11,29.94,3,0,3,0.00
2014-5-21,75,67,61,65,61,54,98,82,67,30.02,29.88,2,0,2,0.01
2014-5-22,90,73,64,74,66,52,99,80,44,29.92,29.73,4,0,4,0.33
2014-5-23,83,68,55,60,52,46,86,59,40,30.00,28.48,4,1,4,0.00
2014-5-24,84,66,53,61,54,47,87,66,40,30.84,29.98,4,0,4,0.00
2014-5-25,89,70,54,60,55,47,98,63,27,30.17,29.67,3,0,3,0.00
2014-5-26,91,72,56,65,60,54,99,70,31,30.10,29.89,5,0,5,0.00
2014-5-27,95,75,64,74,67,63,99,80,44,29.96,29.79,4,1,4,0.50
2014-5-28,83,72,62,73,68,58,99,88,68,30.08,29.81,3,0,3,0.01
2014-5-29,62,59,58,60,58,57,99,97,88,30.20,30.07,2,0,2,0.80
2014-5-30,81,65,57,64,60,57,99,84,46,30.24,30.06,2,0,2,0.04
2014-5-31,84,69,56,60,55,48,97,66,36,30.30,30.19,4,0,4,0.00
2014-6-1,69,64,53,57,56,52,99,75,65,30.36,30.30,4,0,4,0.00
2014-6-2,69,69,69,57,57,57,66,66,66,30.36,30.36,1,1,1,0.00
2014-6-3,69,69,69,57,57,57,66,66,66,30.36,30.36,1,1,1,0.00
2014-6-4,69,69,69,57,57,57,66,66,66,30.36,30.36,1,1,1,0.00
2014-6-5,69,69,69,57,57,57,66,66,66,30.36,30.36,1,1,1,0.00
2014-6-6,69,69,69,57,57,57,66,66,66,30.36,30.36,1,1,1,0.00
2014-6-7,69,69,69,57,57,57,66,66,66,30.36,30.36,1,1,1,0.00
2014-6-8,69,69,69,57,57,57,66,66,66,30.36,30.36,1,1,1,0.00
2014-6-9,69,69,69,57,57,57,66,66,66,30.36,30.36,1,1,1,0.00
2014-6-10,92,75,69,76,66,57,97,75,55,30.36,29.86,2,1,2,0.90
2014-6-11,85,74,70,76,72,69,98,91,70,30.03,29.89,2,1,2,0.34
2014-6-12,75,71,69,74,71,69,99,98,96,30.03,29.88,2,0,2,0.30
2014-6-13,86,74,68,77,72,68,99,93,67,29.91,29.76,3,0,3,0.27
2014-6-14,81,70,60,68,60,55,99,74,45,30.20,29.90,4,0,4,0.01
2014-6-15,90,72,53,64,58,53,99,67,37,30.27,30.14,2,0,3,0.05
2014-6-16,97,78,61,71,61,53,98,58,38,30.24,28.70,88,26,88,0.05
2014-6-17,99,84,70,74,72,68,95,70,41,30.17,29.96,4,0,4,0.00
2014-6-18,99,88,77,76,74,69,83,63,44,30.05,29.94,6,1,6,0.00
2014-6-19,87,76,69,74,72,69,99,88,63,30.11,29.95,2,0,2,0.38
2014-6-20,90,74,61,69,61,55,99,71,31,30.17,29.96,3,0,3,0.00
2014-6-21,71,69,68,66,63,60,89,81,72,30.08,29.95,1,0,1,0.00
2014-6-22,68,68,68,64,64,62,88,87,80,30.08,30.03,0,0,0,0.00
2014-6-23,68,68,68,64,64,64,88,88,88,30.05,30.05,0,0,0,0.00
2014-6-24,68,68,68,64,64,64,88,88,88,30.05,30.05,0,0,0,0.00
2014-6-25,68,68,68,64,64,64,88,88,88,30.05,30.05,0,0,0,0.00
2014-6-26,68,68,68,64,64,64,88,88,88,30.05,30.05,0,0,0,0.00
2014-6-27,68,68,68,64,64,64,88,88,88,30.05,30.05,0,0,0,0.00
2014-6-28,68,68,68,64,64,64,88,88,88,30.05,30.05,0,0,0,0.00
2014-6-29,68,68,68,64,64,64,88,88,88,30.05,30.05,0,0,0,0.00
2014-6-30,68,68,68,64,64,64,88,88,88,30.05,30.05,0,0,0,0.00
2014-7-1,98,80,68,77,71,64,88,75,48,30.05,29.80,5,1,5,0.56
2014-7-2,101,83,75,80,76,72,97,81,48,29.95,29.78,4,0,4,0.07
2014-7-3,94,78,73,79,75,72,99,90,60,30.00,29.86,6,0,6,0.48
2014-7-4,86,74,66,74,64,53,99,74,40,30.17,29.84,5,1,5,0.14
2014-7-5,91,72,56,61,56,50,92,62,29,30.37,30.17,4,0,4,0.00
2014-7-6,94,75,59,66,62,58,98,67,35,30.29,30.03,5,1,5,0.00
2014-7-7,98,84,73,70,67,65,80,60,38,30.03,29.80,8,1,8,0.00
2014-7-8,98,83,71,73,70,65,97,68,43,29.91,29.70,8,1,8,0.37
2014-7-9,94,77,70,76,72,69,99,85,49,30.02,29.86,5,0,5,0.13
2014-7-10,84,75,69,75,72,69,99,88,67,30.17,30.01,2,0,2,0.01
2014-7-11,88,75,66,73,69,65,99,82,50,30.26,30.14,2,0,2,0.00
2014-7-12,90,79,68,74,72,68,99,79,59,30.32,30.19,2,1,2,0.01
2014-7-13,95,84,72,77,73,70,97,70,49,30.20,29.89,6,1,6,0.26
2014-7-14,93,79,71,80,75,71,99,90,63,30.03,29.79,4,0,4,0.39
2014-7-15,90,78,72,79,75,71,99,92,64,29.87,29.74,3,0,3,0.37
2014-7-16,86,74,64,71,65,58,99,77,46,29.99,29.83,4,0,4,0.01
2014-7-17,88,72,60,64,61,57,97,72,38,30.21,29.99,4,0,4,0.00
2014-7-18,90,72,58,64,61,56,99,71,34,30.35,30.21,2,0,2,0.00
2014-7-19,83,74,69,68,64,57,93,73,44,30.30,30.22,2,0,2,0.00
2014-7-20,79,73,68,72,69,66,99,87,69,30.23,30.13,1,0,5,0.02
2014-7-21,85,75,70,72,70,68,98,84,61,30.28,30.16,3,0,3,0.00
2014-7-22,90,77,69,76,72,68,99,85,62,30.26,30.08,4,0,4,0.00
2014-7-23,99,86,71,79,73,16,99,70,46,30.10,29.92,4,1,4,0.00
2014-7-24,98,98,98,74,74,74,46,46,46,29.95,29.95,3,3,3,0.00
2014-7-25,98,98,98,74,74,74,46,46,46,29.95,29.95,3,3,3,0.00
2014-7-26,98,98,98,74,74,74,46,46,46,29.95,29.95,3,3,3,0.00
2014-7-27,98,98,98,74,74,74,46,46,46,29.95,29.95,3,3,3,0.00
2014-7-28,98,98,98,74,74,74,46,46,46,29.95,29.95,3,3,3,0.00
2014-7-29,98,86,61,74,66,55,85,52,45,29.99,29.90,4,2,4,0.08
2014-7-30,87,70,54,61,57,53,99,69,36,30.08,29.95,3,0,3,0.00
2014-7-31,92,76,60,70,64,60,99,69,38,30.14,29.99,4,0,4,0.00
2014-8-1,81,75,71,73,68,64,94,82,57,30.24,30.06,4,0,4,0.00
2014-8-2,81,72,66,71,68,65,99,89,72,30.24,30.01,2,0,2,0.12
2014-8-3,81,73,68,74,71,67,99,93,77,30.10,30.01,3,0,3,0.41
2014-8-4,89,73,63,73,68,62,99,84,52,30.11,29.96,2,0,2,0.00
2014-8-5,96,77,63,73,67,62,99,76,37,30.06,29.82,4,0,4,0.01
2014-8-6,89,73,64,71,68,63,99,86,52,29.91,29.80,4,0,4,0.07
2014-8-7,89,74,65,69,64,60,99,76,42,30.00,29.87,4,0,4,0.00
2014-8-8,88,72,60,65,62,57,99,74,41,30.14,29.97,3,0,3,0.00
2014-8-9,84,73,63,74,67,62,99,83,59,30.22,30.04,3,0,3,0.00
2014-8-10,89,75,64,71,66,62,99,78,46,30.14,30.00,4,0,4,0.04
2014-8-11,84,72,61,70,66,9,99,83,59,30.12,29.99,5,0,5,0.04
2014-8-12,77,72,70,76,71,68,99,97,91,30.04,29.73,3,0,3,3.05
2014-8-13,86,75,66,73,67,60,99,78,51,29.94,29.72,11,2,11,0.01
2014-8-14,87,70,57,64,58,55,97,69,41,30.70,29.83,8,1,8,0.00
2014-8-15,84,67,54,62,56,51,96,70,34,30.71,29.91,7,1,7,0.00
2014-8-16,88,70,56,62,59,53,99,73,35,30.06,29.89,5,0,5,0.00
2014-8-17,92,75,63,72,67,61,96,78,46,30.02,29.87,6,1,6,0.00
2014-8-18,86,73,65,68,66,64,99,80,49,30.00,29.76,2,0,2,0.00
2014-8-19,84,75,67,74,70,67,99,85,66,29.89,29.78,2,0,3,0.00
2014-8-20,89,74,66,72,69,65,99,86,48,29.99,29.88,4,0,4,0.07
2014-8-21,93,76,65,78,71,17,99,88,56,30.06,29.85,5,0,5,0.02
2014-8-22,79,74,68,74,72,68,99,93,84,30.76,27.71,2,0,2,0.00
2014-8-23,72,71,68,71,69,68,99,95,91,30.15,29.97,2,0,2,0.44
2014-8-24,80,70,64,68,66,63,99,88,63,30.17,30.06,2,0,2,0.00
2014-8-25,86,70,60,66,63,60,99,81,47,30.25,30.09,3,0,3,0.00
2014-8-26,88,72,60,69,65,59,99,81,50,30.21,30.04,3,0,3,0.00
2014-8-27,95,76,62,73,68,61,99,80,44,30.09,29.43,4,0,4,0.00
2014-8-28,89,75,64,73,66,57,98,75,43,30.05,29.84,6,1,8,0.00
2014-8-29,86,68,56,63,58,25,97,73,42,30.23,30.05,110,0,110,0.00
2014-8-30,88,74,63,73,69,62,99,85,63,30.28,30.12,4,0,4,0.00
2014-8-31,96,80,73,79,74,72,99,87,49,30.13,29.90,5,1,5,0.14
2014-9-1,96,80,73,79,75,16,99,86,11,30.05,29.93,4,1,4,0.02
2014-9-2,98,82,72,76,73,70,99,78,44,29.97,29.81,11,1,11,0.32
2014-9-3,89,76,69,75,71,16,99,85,12,30.11,29.88,3,0,3,0.02
2014-9-4,69,66,66,68,66,66,99,99,98,30.13,30.10,1,0,1,0.00
2014-9-5,66,66,66,66,66,66,99,99,99,30.13,30.13,0,0,0,0.00
2014-9-6,66,66,66,66,66,66,99,99,99,30.13,30.13,0,0,0,0.00
2014-9-7,66,66,66,66,66,66,99,99,99,30.13,30.13,0,0,0,0.00
2014-9-8,66,66,66,66,66,66,99,99,99,30.13,30.13,0,0,0,0.00
2014-9-9,66,66,66,66,66,66,99,99,99,30.13,30.13,0,0,0,0.00
2014-9-10,66,66,66,66,66,66,99,99,99,30.13,30.13,0,0,0,0.00
2014-9-11,78,68,66,73,66,66,99,97,81,30.13,29.92,2,0,2,0.40
2014-9-12,82,69,62,67,60,58,88,74,47,30.52,30.05,4,1,4,0.00
2014-9-13,68,65,57,68,61,56,99,89,81,30.38,30.25,4,1,4,0.09
2014-9-14,74,60,50,58,53,50,99,82,48,30.40,30.29,5,0,5,0.00
2014-9-15,80,63,52,60,56,51,99,81,47,30.33,30.19,4,0,4,0.00
2014-9-16,83,67,58,64,59,55,99,79,43,30.20,30.07,5,1,7,0.00
2014-9-17,82,63,51,60,55,51,99,80,39,30.20,30.07,3,0,3,0.00
2014-9-18,83,64,55,67,60,54,99,87,51,30.28,30.09,4,0,4,0.00
2014-9-19,76,64,53,63,58,52,99,84,62,30.51,30.28,3,0,3,0.00
2014-9-20,86,70,62,67,63,57,98,80,50,30.48,30.11,4,0,4,0.00
2014-9-21,89,71,58,69,64,58,99,81,48,30.14,29.75,6,0,8,0.00
2014-9-22,77,65,53,60,52,47,83,63,44,30.37,29.85,11,2,11,0.00
2014-9-23,76,58,46,53,49,45,99,75,39,30.49,30.34,4,0,4,0.00
2014-9-24,68,60,50,62,57,49,99,88,75,30.51,30.44,4,1,4,0.02
2014-9-25,66,63,60,66,62,-13,99,97,89,30.50,30.36,78,1,78,0.89
2014-9-26,80,64,55,63,59,54,99,85,48,30.40,30.26,4,0,4,0.01
2014-9-27,91,65,53,65,58,8,99,82,14,30.39,30.31,4,0,4,0.00
2014-9-28,86,67,54,66,61,53,99,83,46,30.34,30.10,4,0,4,0.00
2014-9-29,71,66,61,68,64,60,99,95,87,30.17,30.05,2,0,2,0.00
2014-9-30,82,69,65,68,65,63,99,88,55,30.10,29.95,4,0,4,0.32
2014-10-1,75,66,60,68,64,60,99,93,76,30.19,30.05,4,0,4,0.01
2014-10-2,76,64,57,67,61,8,99,91,73,30.27,30.18,2,0,2,0.00
2014-10-3,70,65,59,66,63,59,99,93,80,30.24,29.83,3,0,3,0.09
2014-10-4,74,63,46,68,53,35,99,74,42,30.62,29.73,10,2,10,0.06
2014-10-5,69,50,38,46,41,37,99,74,34,29.93,29.74,8,1,8,0.00
2014-10-6,79,58,42,54,48,42,99,74,35,29.96,29.80,6,1,8,0.00
2014-10-7,67,64,60,63,58,51,98,82,61,30.06,29.92,6,1,6,0.39
2014-10-8,79,64,54,62,55,48,99,76,44,30.13,29.91,8,1,8,0.01
2014-10-9,74,60,48,54,49,43,98,70,36,30.16,30.05,4,0,4,0.00
2014-10-10,63,59,56,57,54,51,93,81,71,30.16,30.10,2,0,2,0.01
2014-10-11,59,55,53,57,54,52,99,96,91,30.14,29.97,3,0,3,0.44
2014-10-12,62,55,46,55,50,46,99,84,62,30.22,30.07,2,0,2,0.01
2014-10-13,65,61,58,64,60,54,99,94,85,30.20,30.10,1,0,1,0.15
2014-10-14,75,70,65,72,68,64,99,95,85,30.19,30.05,6,1,6,0.00
2014-10-15,75,69,66,74,69,65,99,98,93,30.11,29.96,4,0,4,0.63
2014-10-16,66,66,66,66,66,66,99,99,99,30.00,30.00,0,0,1,0.63
2014-10-17,66,66,66,66,66,66,99,99,99,30.00,30.00,0,0,1,0.63
2014-10-18,66,66,66,66,66,66,99,99,99,30.00,30.00,0,0,1,0.63
2014-10-19,66,66,66,66,66,66,99,99,99,30.00,30.00,0,0,1,0.63
2014-10-20,77,62,41,71,54,40,99,78,43,30.06,29.80,7,1,7,0.63
2014-10-21,73,58,48,56,52,47,99,83,48,29.91,29.73,6,0,6,0.63
2014-10-22,55,54,53,54,52,48,98,94,82,29.89,29.80,8,1,8,0.61
2014-10-23,67,57,52,52,48,47,83,73,57,30.08,29.72,13,3,13,0.00
2014-10-24,72,58,52,50,45,40,81,62,37,29.97,29.79,11,2,11,0.00
2014-10-25,76,58,43,51,45,40,96,66,36,29.95,29.63,7,1,7,0.00
2014-10-26,73,59,46,50,40,30,85,53,22,29.93,29.60,12,2,12,0.00
2014-10-27,80,54,37,46,40,30,99,66,20,29.97,29.88,4,0,4,0.00
2014-10-28,87,64,50,60,53,45,94,70,37,29.96,29.88,5,0,5,0.00
2014-10-29,69,59,47,61,56,46,99,89,62,30.78,29.91,8,0,8,0.05
2014-10-30,64,50,42,51,44,42,99,81,50,30.68,29.91,6,0,6,0.00
2014-10-31,58,50,43,47,42,11,98,77,54,29.95,29.62,2,0,2,0.00
2014-11-1,52,49,45,47,42,34,92,80,65,29.63,29.51,11,1,11,0.01
2014-11-2,56,46,43,36,29,19,72,53,32,30.36,29.58,16,4,16,0.00
2014-11-3,58,47,40,37,27,16,84,47,24,30.83,30.06,12,1,12,0.00
2014-11-4,74,54,38,45,39,35,92,61,29,30.10,29.95,3,0,3,0.00
2014-11-5,68,59,51,55,47,38,98,66,46,30.10,29.95,6,0,6,0.09
2014-11-6,66,55,49,60,54,46,99,96,81,30.06,29.57,4,0,4,0.41
2014-11-7,56,48,37,47,38,29,92,70,47,30.01,29.60,17,3,17,0.00
2014-11-8,56,43,31,38,31,27,88,66,37,29.95,29.72,6,0,6,0.00
2014-11-9,62,46,36,43,38,33,98,75,41,29.93,29.73,9,1,9,0.00
2014-11-10,69,48,34,48,40,33,99,79,45,30.67,29.89,4,0,4,0.00
2014-11-11,78,54,36,60,50,35,99,88,52,29.99,29.78,3,0,3,0.00
2014-11-12,70,58,43,62,48,32,99,74,42,30.06,29.77,10,1,10,0.00
2014-11-13,47,41,36,38,33,28,99,73,57,30.05,29.85,3,1,4,0.05
2014-11-14,47,38,31,38,25,19,97,62,41,30.22,29.89,11,2,11,0.01
2014-11-15,52,35,28,29,22,17,81,60,33,30.21,30.11,4,1,4,0.00
2014-11-16,45,40,29,42,31,24,99,71,46,30.13,29.80,5,0,5,0.07
2014-11-17,49,44,39,48,42,28,99,93,65,29.81,29.31,13,1,13,0.78
2014-11-18,39,30,25,29,6,-4,68,37,21,30.14,29.57,16,4,16,0.00
2014-11-19,40,30,20,15,8,4,56,40,25,30.10,29.75,7,1,7,0.00
2014-11-20,57,40,30,29,19,-32,57,42,28,30.00,29.55,8,2,8,0.00
2014-11-21,44,32,24,13,9,1,64,39,21,30.40,29.96,14,2,14,0.00
2014-11-22,54,36,19,26,18,12,81,51,23,30.37,29.97,8,1,8,0.00
2014-11-23,56,47,35,49,31,-46,97,56,34,30.11,29.76,12,1,12,0.07
2014-11-24,72,64,50,64,59,50,99,84,62,30.42,29.46,10,2,10,0.19
2014-11-25,65,53,44,61,41,34,93,65,43,30.11,29.79,8,1,9,0.00
2014-11-26,46,39,34,43,37,33,99,94,80,30.10,29.68,7,1,7,0.81
2014-11-27,48,38,34,38,34,29,98,85,62,30.04,29.77,8,1,8,0.17
2014-11-28,44,34,26,31,23,17,82,64,43,30.20,29.94,12,2,12,0.00
2014-11-29,50,38,27,35,29,21,87,70,47,30.22,29.89,6,1,6,0.00
2014-11-30,64,51,40,47,40,32,75,66,45,30.06,29.84,4,1,4,0.00
2014-12-1,80,57,44,57,48,38,95,75,44,30.47,29.91,9,1,9,0.06
2014-12-2,44,39,36,38,37,34,99,91,79,30.45,29.51,3,0,3,0.43
2014-12-3,49,43,37,49,42,31,99,94,68,29.83,29.39,11,1,11,0.01
2014-12-4,48,39,31,35,31,28,93,72,55,29.98,29.69,6,0,6,0.00
2014-12-5,43,42,40,41,36,31,97,79,67,29.96,29.64,2,0,2,0.04
2014-12-6,50,45,42,49,44,40,99,97,93,29.82,29.45,7,1,7,0.39
2014-12-7,56,41,34,41,26,18,99,59,25,30.08,29.72,11,2,11,0.00
2014-12-8,37,35,31,32,23,14,92,63,47,30.07,29.59,4,1,4,0.00
2014-12-9,44,39,33,42,38,32,99,96,81,29.59,29.24,9,2,9,0.38
2014-12-10,50,43,38,38,34,28,83,71,57,29.40,29.14,16,4,16,0.00
2014-12-11,38,38,38,28,28,27,67,67,66,29.36,29.35,7,2,7,0.00